Location: Starlight Observatory
(38.4029°N, 85.8936°W)
Time: 16:58:17
(UTC-04:00)

Iridium 62 - Visible Passes

Search period start: 29 August 2015 00:00
Search period end: 08 September 2015 00:00
Orbit: 776 x 779 km, 86.4° (Epoch: 29 August)

Date Brightness Start Highest point End Pass type
(mag) Time Alt. Az. Time Alt. Az. Time Alt. Az.
29 Aug 8.0 00:20:20 10° N 00:22:09 22° N 00:22:09 22° N visible
29 Aug 7.8 23:46:54 10° N 23:48:41 21° NNE 23:48:41 21° NNE visible
30 Aug 7.9 23:13:50 10° NNE 23:15:13 17° NNE 23:15:13 17° NNE visible
31 Aug 8.4 00:54:32 10° NNW 00:55:41 16° NNW 00:55:41 16° NNW visible
31 Aug 8.2 22:41:25 10° NE 22:41:46 11° NE 22:41:46 11° NE visible
01 Sep 8.1 00:20:31 10° NNW 00:22:14 21° NNW 00:22:14 21° NNW visible
01 Sep 7.8 23:46:53 10° N 23:48:48 23° N 23:48:48 23° N visible
02 Sep 7.8 23:13:35 10° NNE 23:15:21 20° NNE 23:15:21 20° NNE visible
03 Sep 8.6 00:55:10 10° NW 00:55:49 12° NW 00:55:49 12° NW visible
03 Sep 7.9 22:40:42 10° NNE 22:41:55 15° NE 22:41:55 15° NE visible
04 Sep 8.2 00:20:50 10° NNW 00:22:23 19° NNW 00:22:23 19° NNW visible
04 Sep 7.9 23:46:59 10° N 23:48:58 24° N 23:48:58 24° N visible
05 Sep 7.6 23:13:28 10° N 23:15:32 24° NNE 23:15:32 24° NNE visible
06 Sep 7.7 22:40:19 10° NNE 22:42:07 19° NNE 22:42:07 19° NNE visible
07 Sep 8.4 00:21:18 10° NNW 00:22:35 16° NW 00:22:35 16° NW visible
07 Sep 7.9 22:07:42 10° NE 22:08:43 13° NE 22:08:43 13° NE visible
07 Sep 8.0 23:47:12 10° NNW 23:49:11 23° NNW 23:49:11 23° NNW visible
